Location: Enfer
(49.0875°N, 1.8102°E)
Time: 04:42:59
(UTC+00:00)

Daily predictions for brighter satellites

Satellite Brightness Start Highest point End
(mag) Time Altitude Azimuth Time Altitude Azimuth Time Altitude Azimuth
H-2A R/B 4.1 02:59:13 10° NE 03:02:39 23° E 03:02:39 23° E
NOSS 3-1 (A) 4.1 03:23:44 72° SSE 03:23:44 72° SSE 03:31:35 10° SE
Cosmos 1980 Rocket 3.5 03:23:21 33° ESE 03:23:58 34° ESE 03:28:58 10° NE
USA 281 4.0 03:21:58 10° ESE 03:28:10 47° NE 03:32:52 18° NNW
ATLAS 3B R/B 3.1 03:27:51 59° N 03:29:17 71° NE 03:37:02 10° SE
USA 267 3.8 03:32:08 10° ENE 03:38:16 45° N 03:38:49 44° N
Cosmos 1697 Rocket 3.3 03:42:44 50° NNE 03:42:44 50° NNE 03:46:53 10° NNE
ATLAS CENTAUR R/B 3.8 03:43:56 18° NE 03:43:56 18° NE 03:45:02 10° NE
Lacrosse 4 Rocket 3.5 03:49:01 22° SE 03:49:01 22° SE 03:50:32 10° SE
ATLAS 2AS CENTAUR R/B 2.6 03:47:22 82° WSW 03:47:43 87° NW 03:54:47 10° NE
Cosmos 1452 Rocket 4.2 03:52:06 47° NNE 03:52:06 47° NNE 03:55:49 10° NNE
Cosmos 1818 4.3 03:51:21 45° SSE 03:52:07 49° ESE 03:57:24 10° NE
USA 59 Rocket 1.7 03:53:36 27° NE 03:53:36 27° NE 03:57:01 10° E
CZ-2C R/B 3.7 03:54:19 10° NNE 03:56:41 30° N 03:56:41 30° N
Cosmos 2263 Rocket 2.1 04:00:00 84° E 04:00:00 84° E 04:05:32 10° SSE
Cosmos 2082 3.7 04:03:03 58° N 04:04:10 76° ENE 04:09:49 10° SSE
Cosmos 2227 Rocket 4.4 04:13:54 11° S 04:13:54 11° S 04:14:09 10° S
Cosmos 2285 Rocket 4.4 04:11:34 46° SSW 04:11:34 46° SSW 04:16:13 10° S
Cosmos 2266 Rocket 4.1 04:04:14 10° S 04:10:39 81° E 04:17:04 10° N
BREEZE-M DEB (TANK) 3.4 04:14:05 39° E 04:14:05 39° E 04:17:21 10° E
NOSS 2-1 (E) 4.3 04:20:27 39° NNE 04:20:54 41° NE 04:25:20 10° ESE
SL-16 R/B 4.4 04:18:57 10° SSE 04:23:28 25° ESE 04:27:59 10° NE
USA 229 DEB 4.0 04:21:54 29° NW 04:26:10 84° NE 04:34:17 10° SE
USA 229 4.0 04:22:00 29° NW 04:26:17 83° NE 04:34:23 10° SE
Cosmos 1484 Rocket 3.6 04:24:30 10° NNE 04:27:55 45° E 04:30:41 14° S
Cosmos 304 Rocket 3.9 04:26:56 32° N 04:29:06 70° ENE 04:33:50 10° SSE
Cosmos 1655 Rocket 4.2 04:23:49 10° S 04:30:11 75° E 04:36:31 10° NNE
IRAS Rocket 4.1 04:28:21 10° NNE 04:33:53 83° WNW 04:39:25 10° SSW
S3M 3.9 04:29:13 10° NNW 04:35:25 61° W 04:41:28 10° S
Cosmos 2219 3.4 04:35:43 48° WSW 04:35:43 48° WSW 04:40:59 10° S
SKYMED 2 4.4 04:32:02 10° SE 04:36:14 51° ENE 04:40:28 10° N
BREEZE-M DEB (TANK) 4.0 04:39:15 15° SSE 04:39:31 16° SSE 04:41:18 10° ESE
H-2A R/B 2.0 04:38:01 10° N 04:42:53 51° WNW 04:43:09 50° W
BREEZE-M DEB (TANK) 3.3 04:45:30 38° S 04:45:30 38° S 04:50:46 10° ESE
PAYLOAD A 4.5 04:42:38 10° N 04:47:41 41° WNW 04:47:57 41° WNW
SL-8 R/B 4.2 04:49:43 31° SW 04:51:40 53° SSE 04:56:17 10° E
Meteor 1-24 Rocket 3.5 04:46:31 10° SSW 04:51:56 63° WNW 04:57:15 10° N
ARIANE 5 R/B 4.4 04:48:57 10° NNE 04:53:29 32° E 04:58:01 10° SSE
ARGOS 3.1 04:48:34 10° NNE 04:54:02 88° WNW 04:59:29 10° SSW
Thor Agena Rocket 3.4 04:50:25 10° NNE 04:55:38 72° WNW 05:00:45 10° SSW
Meteor 2-20 Rocket 4.2 04:53:34 10° NNW 04:59:25 63° W 05:05:04 10° S
Cosmos 1844 Rocket 3.2 04:53:57 10° NNW 04:59:33 58° ENE 05:05:05 10° SE
NOSS 2-1 (C) 3.4 04:58:21 38° NW 04:59:49 84° NE 05:04:45 10° SE
Cosmos 2322 Rocket 4.1 04:58:04 10° SSE 05:02:58 31° ESE 05:07:53 10° NE
Sich 1 Rocket 3.7 05:00:40 10° N 05:05:10 79° E 05:09:40 10° SSE
H-2A R/B 4.2 05:04:36 10° NE 05:06:43 24° E 05:08:47 10° SSE
Cosmos 1980 Rocket 2.4 05:05:10 27° WSW 05:07:49 46° NW 05:13:13 10° NNE
IRS-1D 4.0 05:03:55 10° N 05:08:25 35° WNW 05:09:55 29° W
YAOGAN 11 4.2 05:06:05 10° SSE 05:10:25 76° ENE 05:14:52 10° NNW
Cosmos 2369 3.7 05:07:06 14° SW 05:11:53 58° WNW 05:17:30 10° NNE
USA 281 3.5 05:06:29 10° S 05:12:42 44° WSW 05:18:58 10° NW
Cosmos 1378 Rocket 3.4 05:11:10 10° SSW 05:15:35 76° W 05:19:59 10° N
FengYun 1-2 T 4.2 05:11:23 10° NNE 05:17:03 83° WNW 05:22:42 10° SSW
Cosmos 1674 Rocket 3.4 05:13:16 10° S 05:17:34 88° W 05:21:56 10° N
Cosmos 1025 Rocket 4.1 05:14:07 10° SSE 05:18:09 46° E 05:22:14 10° NNE
ATLAS CENTAUR R/B 2.2 05:18:23 26° NW 05:18:41 26° NW 05:21:59 10° NNE
Cosmos 371 Rocket 3.7 05:16:34 22° NW 05:19:07 39° WSW 05:23:35 10° S
ATLAS 3B R/B 3.5 05:15:09 20° WNW 05:19:40 36° WSW 05:26:28 10° S
Meteor 2-5 Rocket 4.1 05:15:06 10° SW 05:20:29 40° WNW 05:25:49 10° N
USA 267 3.5 05:14:20 10° ESE 05:20:47 66° NNE 05:26:08 16° NW
Okean 2 Rocket 3.0 05:16:20 10° NNW 05:20:49 70° W 05:25:13 10° S
ARIANE 6 FM1 Upper Stage 3.3 05:17:47 10° SSW 05:21:55 58° SE 05:26:08 10° NE
Cosmos 482 Debris 4.3 05:20:32 27° W 05:22:51 66° NNW 05:26:30 10° ENE
Cosmos 1939 Rocket 3.4 05:20:07 10° N 05:23:25 30° WNW 05:24:25 26° W
Cosmos 1503 Rocket 4.4 05:18:06 10° NNW 05:23:26 68° ENE 05:28:39 10° SSE
Lacrosse 4 Rocket 2.9 05:24:51 18° WSW 05:24:51 18° WSW 05:27:05 10° SSW
Cosmos 1486 Rocket 3.9 05:18:59 10° NNW 05:24:13 82° WSW 05:29:26 10° SSE
COSMO-SKYMED 1 2.6 05:20:02 10° S 05:24:16 54° W 05:28:33 10° NNW
Cosmos 1992 Rocket 3.9 05:19:17 10° SW 05:24:28 64° WNW 05:29:41 10° NNE
Cosmos 332 Rocket 3.8 05:19:55 10° NNW 05:24:51 87° ENE 05:29:42 10° SSE
NOAA 12 4.1 05:20:33 10° NNE 05:25:55 90° WNW 05:31:15 10° SSW
Cosmos 1697 Rocket 3.9 05:24:29 20° WNW 05:25:56 22° NW 05:30:17 10° N
SL-08 R/B 4.5 05:23:08 10° SE 05:27:38 43° ENE 05:32:04 10° N
Cosmos 1844 3.8 05:22:36 10° NNW 05:28:18 81° ENE 05:34:02 10° SSE
NOSS 2-1 (D) 3.7 05:29:47 22° WNW 05:32:07 53° SW 05:37:08 10° SSE
Cosmos 2098 Rocket 2.4 05:28:27 10° N 05:32:21 81° W 05:35:36 10° S
Cosmos 2227 4.3 05:28:58 10° NW 05:34:31 57° WSW 05:40:04 10° S
Cosmos 1818 4.1 05:32:02 17° WSW 05:35:50 40° NW 05:41:00 10° NNE
SJ-11-01 4.2 05:31:33 10° N 05:36:13 76° WNW 05:40:51 10° SSW
CZ-2C R/B 4.1 05:34:06 10° NNW 05:35:57 14° NW 05:35:57 14° NW
CRYOSAT 2 4.3 05:34:32 10° S 05:39:25 79° W 05:44:21 10° N
ATLAS 2AS CENTAUR R/B 3.5 05:34:49 17° W 05:39:30 34° NNW 05:45:44 10° NE
USA 59 Rocket 0.5 05:39:52 18° WNW 05:42:36 46° SW 05:47:38 10° SSE
Cosmos 2263 Rocket 3.6 05:41:46 16° W 05:43:02 17° W 05:46:32 10° SW
NOSS 3 (A) 2.8 05:42:42 34° SW 05:43:12 80° SE 05:44:46 10° NE
Cosmos 1455 Rocket 3.5 05:39:15 10° N 05:43:36 64° ENE 05:47:54 10° SSE
Nadezhda 1 Rocket 4.0 05:38:12 10° N 05:44:25 84° E 05:50:30 10° S
CBERS-1 4.3 05:41:27 10° N 05:46:18 44° WNW 05:51:07 10° SW
Cosmos 2237 4.2 05:41:48 10° SW 05:47:28 70° WNW 05:53:10 10° NNE
SL-08 R/B 4.4 05:45:20 10° SSW 05:51:25 71° W 05:57:36 10° N
Cosmos 1869 3.6 05:47:55 10° N 05:51:44 65° E 05:55:30 10° SSE
Cosmos 2151 Rocket 4.4 05:49:58 10° NNW 05:53:49 29° W 05:57:40 10° SSW
Cosmos 1437 Rocket 3.3 05:51:36 10° SW 05:54:47 29° WNW 05:58:01 10° N
Cosmos 2360 Rocket 2.8 05:49:18 10° SSW 05:54:48 61° ESE 06:00:21 10° NE
Cosmos 1484 Rocket 4.1 05:58:55 10° NNW 06:01:05 16° WNW 06:03:15 10° W
Okean 1 Rocket 3.6 05:58:07 10° NNW 06:02:16 39° W 06:06:24 10° SSW
Cosmos 1606 2.4 05:58:54 10° NNW 06:02:16 60° W 06:05:35 10° S
Cosmos 1354 Rocket 4.0 05:58:07 10° NNW 06:03:27 80° WSW 06:08:43 10° SSE
BREEZE-M DEB (TANK) 2.4 05:59:20 11° W 06:04:39 87° SSW 06:06:50 10° E
Cosmos 2084 Rocket 3.4 06:01:00 10° SW 06:05:17 63° NW 06:09:28 10° NE
SL-16 R/B 2.2 06:01:31 10° SW 06:07:07 62° WNW 06:12:46 10° NNE
Cosmos 292 Rocket 3.9 06:04:12 10° NNW 06:09:02 85° ENE 06:13:51 10° SSE
Gbstr 26 Del rocket 3.5 06:05:38 10° WSW 06:10:24 87° NNW 06:16:24 10° ENE
CZ-2D R/B 3.0 06:07:47 10° N 06:11:17 59° WNW 06:14:45 10° SSW
TRACE 4.5 06:10:31 10° S 06:13:42 51° W 06:16:55 10° NNW
EXPRESS MD2 3.1 06:10:58 10° SW 06:13:59 48° SSE 06:16:12 10° E
ADEOS Rocket 3.5 06:07:44 10° NNE 06:15:06 87° ESE 06:21:41 10° SSW
Cosmos 2228 4.2 06:12:51 10° N 06:16:52 44° ENE 06:20:50 10° SSE
CZ-2D R/B 3.3 06:12:57 10° NNE 06:16:54 78° WNW 06:20:52 10° SSW
SJ-12 4.1 06:15:38 10° N 06:19:27 47° WNW 06:23:14 10° SW
